When you browse on this site, cookies collect data to enhance your experience and personalize the content and advertising you see.
Visit our Privacy Policy to learn more. By continuing to use the site, you agree to this use of cookies and data.
  • In Portugal
  • List of Countries
  • For 7 days
  • Water Temperature
  • Satellite Maps
  • Weather Map
  • Weather Widgets
  • user-avatar
    Login

    Hourly Weather Neuquén

    Today, 15 December, Saturday

    Time Temperature Precipitation Wind Pressure Humidity
    00:00 +16°C° 0 mm 8 mps 734 mmHg 33%
    01:00 +15°C° 0 mm 7 mps 734 mmHg 34%
    02:00 +15°C° 0 mm 7 mps 734 mmHg 35%
    03:00 +14°C° 0 mm 6 mps 734 mmHg 36%
    04:00 +14°C° 0 mm 5 mps 734 mmHg 37%
    05:00 +15°C° 0 mm 5 mps 734 mmHg 33%
    06:00 +17°C° 0 mm 5 mps 734 mmHg 30%
    07:00 +19°C° 0 mm 6 mps 734 mmHg 26%
    08:00 +21°C° 0 mm 6 mps 734 mmHg 23%
    09:00 +23°C° 0 mm 6 mps 733 mmHg 20%
    10:00 +26°C° 0 mm 6 mps 733 mmHg 18%
    11:00 +27°C° 0 mm 6 mps 733 mmHg 16%
    12:00 +29°C° 0 mm 6 mps 732 mmHg 14%
    13:00 +30°C° 0 mm 6 mps 731 mmHg 13%
    14:00 +32°C° 0 mm 6 mps 731 mmHg 12%
    15:00 +33°C° 0 mm 6 mps 730 mmHg 12%
    16:00 +33°C° 0 mm 6 mps 730 mmHg 12%
    17:00 +32°C° 0 mm 7 mps 730 mmHg 14%
    18:00 +31°C° 0 mm 8 mps 730 mmHg 17%
    19:00 +29°C° 0 mm 9 mps 730 mmHg 19%
    20:00 +28°C° 0 mm 9 mps 731 mmHg 23%
    21:00 +27°C° 0 mm 9 mps 731 mmHg 27%
    22:00 +24°C° 0 mm 9 mps 731 mmHg 31%
    23:00 +23°C° 0 mm 9 mps 731 mmHg 34%

    Tomorrow, 16 December, Sunday

    Time Temperature Precipitation Wind Pressure Humidity
    00:00 +22°C° 0 mm 9 mps 731 mmHg 37%
    01:00 +22°C° 0 mm 9 mps 731 mmHg 39%
    02:00 +21°C° 0 mm 8 mps 731 mmHg 41%
    03:00 +21°C° 0 mm 7 mps 731 mmHg 42%
    04:00 +21°C° 0 mm 6 mps 731 mmHg 43%
    05:00 +22°C° 0 mm 7 mps 731 mmHg 40%
    06:00 +23°C° 0 mm 8 mps 731 mmHg 37%
    07:00 +26°C° 0 mm 9 mps 731 mmHg 34%
    08:00 +27°C° 0 mm 9 mps 731 mmHg 31%
    09:00 +29°C° 0 mm 9 mps 731 mmHg 28%
    10:00 +31°C° 0 mm 10 mps 730 mmHg 25%
    11:00 +32°C° 0 mm 10 mps 730 mmHg 24%
    12:00 +33°C° 0 mm 11 mps 730 mmHg 22%
    13:00 +33°C° 0 mm 11 mps 729 mmHg 21%
    14:00 +33°C° 0 mm 12 mps 729 mmHg 20%
    15:00 +32°C° 0 mm 12 mps 729 mmHg 19%
    16:00 +32°C° 0 mm 13 mps 729 mmHg 19%
    17:00 +29°C° 0 mm 13 mps 730 mmHg 20%
    18:00 +27°C° 0 mm 13 mps 731 mmHg 22%
    19:00 +26°C° 0 mm 12 mps 731 mmHg 24%
    20:00 +24°C° 0 mm 11 mps 732 mmHg 26%
    21:00 +23°C° 0 mm 10 mps 734 mmHg 27%
    22:00 +22°C° 0 mm 9 mps 735 mmHg 29%
    23:00 +21°C° 0 mm 9 mps 735 mmHg 32%

    Day after tomorrow, 17 December, Monday

    Time Temperature Precipitation Wind Pressure Humidity
    00:00 +20°C° 0 mm 8 mps 735 mmHg 35%
    01:00 +18°C° 0 mm 8 mps 736 mmHg 38%
    02:00 +17°C° 0 mm 8 mps 736 mmHg 42%
    03:00 +16°C° 0 mm 7 mps 737 mmHg 45%
    04:00 +16°C° 0 mm 6 mps 738 mmHg 49%
    05:00 +16°C° 0 mm 6 mps 738 mmHg 46%
    06:00 +17°C° 0 mm 6 mps 739 mmHg 42%
    07:00 +17°C° 0 mm 5 mps 739 mmHg 39%
    08:00 +19°C° 0 mm 5 mps 739 mmHg 34%
    09:00 +21°C° 0 mm 5 mps 739 mmHg 28%
    10:00 +22°C° 0 mm 5 mps 739 mmHg 23%
    11:00 +23°C° 0 mm 4 mps 739 mmHg 21%
    12:00 +25°C° 0 mm 4 mps 738 mmHg 19%
    13:00 +26°C° 0 mm 3 mps 738 mmHg 17%
    14:00 +26°C° 0 mm 3 mps 737 mmHg 17%
    15:00 +26°C° 0 mm 3 mps 737 mmHg 16%
    16:00 +27°C° 0 mm 2 mps 736 mmHg 15%
    17:00 +27°C° 0 mm 3 mps 736 mmHg 15%
    18:00 +26°C° 0 mm 3 mps 736 mmHg 15%
    19:00 +26°C° 0 mm 3 mps 736 mmHg 15%
    20:00 +25°C° 0 mm 4 mps 736 mmHg 17%
    21:00 +25°C° 0 mm 4 mps 736 mmHg 18%
    22:00 +23°C° 0 mm 5 mps 736 mmHg 19%
    23:00 +23°C° 0 mm 5 mps 736 mmHg 20%

    18 December, Tuesday

    Time Temperature Precipitation Wind Pressure Humidity
    00:00 +22°C° 0 mm 6 mps 736 mmHg 21%
    01:00 +21°C° 0 mm 6 mps 735 mmHg 23%
    02:00 +21°C° 0 mm 6 mps 735 mmHg 28%
    03:00 +20°C° 0 mm 6 mps 735 mmHg 33%
    04:00 +20°C° 0 mm 6 mps 735 mmHg 39%
    05:00 +21°C° 0 mm 6 mps 735 mmHg 39%
    06:00 +23°C° 0 mm 6 mps 735 mmHg 39%
    07:00 +24°C° 0 mm 7 mps 735 mmHg 39%
    08:00 +27°C° 0 mm 7 mps 735 mmHg 33%
    09:00 +28°C° 0 mm 7 mps 735 mmHg 27%
    10:00 +30°C° 0 mm 7 mps 734 mmHg 22%
    11:00 +32°C° 0 mm 6 mps 734 mmHg 20%
    12:00 +33°C° 0 mm 6 mps 733 mmHg 18%
    13:00 +34°C° 0 mm 6 mps 732 mmHg 16%
    14:00 +35°C° 0 mm 6 mps 731 mmHg 16%
    15:00 +35°C° 0 mm 6 mps 731 mmHg 16%
    16:00 +36°C° 0 mm 5 mps 730 mmHg 16%
    17:00 +35°C° 0 mm 6 mps 729 mmHg 17%
    18:00 +34°C° 0 mm 6 mps 729 mmHg 19%
    19:00 +34°C° 0 mm 6 mps 729 mmHg 20%
    20:00 +33°C° 0 mm 7 mps 729 mmHg 22%
    21:00 +32°C° 0 mm 7 mps 729 mmHg 24%
    22:00 +31°C° 0 mm 8 mps 729 mmHg 26%
    23:00 +29°C° 0 mm 7 mps 728 mmHg 26%

    19 December, Wednesday

    Time Temperature Precipitation Wind Pressure Humidity
    00:00 +28°C° 0 mm 7 mps 728 mmHg 26%
    01:00 +27°C° 0 mm 6 mps 727 mmHg 25%
    02:00 +26°C° 0 mm 6 mps 727 mmHg 25%
    03:00 +26°C° 0 mm 7 mps 727 mmHg 24%
    04:00 +24°C° 0 mm 7 mps 727 mmHg 23%
    05:00 +26°C° 0 mm 8 mps 728 mmHg 23%
    06:00 +27°C° 0 mm 9 mps 728 mmHg 23%
    07:00 +28°C° 0 mm 10 mps 728 mmHg 23%
    08:00 +29°C° 0 mm 10 mps 728 mmHg 22%
    09:00 +31°C° 0 mm 10 mps 728 mmHg 20%
    10:00 +32°C° 0 mm 10 mps 728 mmHg 19%
    11:00 +32°C° 0 mm 10 mps 728 mmHg 18%
    12:00 +33°C° 0 mm 10 mps 728 mmHg 18%
    13:00 +33°C° 0 mm 11 mps 728 mmHg 18%
    14:00 +33°C° 0 mm 11 mps 728 mmHg 17%
    15:00 +33°C° 0 mm 11 mps 728 mmHg 16%
    16:00 +34°C° 0 mm 12 mps 728 mmHg 15%
    17:00 +32°C° 0 mm 11 mps 729 mmHg 18%
    18:00 +29°C° 0 mm 9 mps 730 mmHg 21%
    19:00 +28°C° 0 mm 8 mps 731 mmHg 24%
    20:00 +27°C° 0 mm 7 mps 732 mmHg 24%
    21:00 +27°C° 0 mm 6 mps 733 mmHg 23%
    22:00 +26°C° 0 mm 5 mps 733 mmHg 23%
    23:00 +24°C° 0 mm 6 mps 734 mmHg 26%

    20 December, Thursday

    Time Temperature Precipitation Wind Pressure Humidity
    00:00 +23°C° 0 mm 6 mps 734 mmHg 29%
    01:00 +21°C° 0 mm 7 mps 735 mmHg 32%
    02:00 +20°C° 0 mm 6 mps 735 mmHg 37%
    03:00 +19°C° 0 mm 5 mps 735 mmHg 41%
    04:00 +18°C° 0 mm 4 mps 735 mmHg 46%
    05:00 +19°C° 0 mm 4 mps 736 mmHg 45%
    06:00 +20°C° 0 mm 3 mps 736 mmHg 43%
    07:00 +20°C° 0 mm 3 mps 736 mmHg 42%
    08:00 +23°C° 0 mm 2 mps 736 mmHg 38%
    09:00 +24°C° 0 mm 2 mps 735 mmHg 34%
    10:00 +25°C° 0 mm 1 mps 735 mmHg 29%
    11:00 +27°C° 0 mm 1 mps 734 mmHg 26%
    12:00 +28°C° 0 mm 1 mps 734 mmHg 23%
    13:00 +29°C° 0 mm 1 mps 733 mmHg 20%
    14:00 +30°C° 0 mm 1 mps 733 mmHg 18%
    15:00 +31°C° 0 mm 2 mps 732 mmHg 17%
    16:00 +31°C° 0 mm 2 mps 731 mmHg 15%
    17:00 +31°C° 0 mm 2 mps 731 mmHg 15%
    18:00 +31°C° 0 mm 2 mps 731 mmHg 15%
    19:00 +31°C° 0 mm 2 mps 731 mmHg 15%
    20:00 +30°C° 0 mm 3 mps 731 mmHg 16%
    21:00 +29°C° 0 mm 4 mps 731 mmHg 17%
    22:00 +29°C° 0 mm 4 mps 731 mmHg 18%
    23:00 +28°C° 0 mm 5 mps 731 mmHg 19%
    Show more